Location: Newark
(12.0500°N, 61.7500°W)
Time: 01:12:11
(UTC+00:00)

Envisat - Pass Details

Date: 31 January 2020
Orbit: 764 x 766 km, 98.1° (Epoch: 27 February)

Event Time Altitude Azimuth Distance (km) Brightness Sun altitude
Rises 09:20:06 0° 46° (NE) 3,220 6.7 -17.8°
Reaches altitude 10° 09:23:59 10° 77° (ENE) 2,293 6.4 -16.8°
Maximum altitude 09:25:52 12° 99° (E) 2,155 6.6 -16.4°
Drops below altitude 10° 09:27:45 10° 121° (ESE) 2,293 6.7 -16.0°
Sets 09:31:37 0° 151° (SSE) 3,219 6.9 -15.0°
